| time (UTC) | temp C | wind direction | speed KPH | gust KPH | rain 1hr cm | rain 24hr cm | rain mn cm | humidity % | barometer mb |
| 20260506004153 | 20 | 145 | 6.4 | 12.9 | 0.00 | 0.00 | 0.00 | 70 | 1015.9 |
| 20260506003649 | 20 | 132 | 9.7 | 14.5 | 0.00 | 0.00 | 0.00 | 69 | 1015.5 |
| 20260506003145 | 20 | 153 | 6.4 | 20.9 | 0.00 | 0.00 | 0.00 | 69 | 1015.9 |
| 20260506002641 | 20 | 151 | 9.7 | 20.9 | 0.00 | 0.00 | 0.00 | 69 | 1015.5 |
| 20260506002138 | 20 | 129 | 6.4 | 20.9 | 0.00 | 0.00 | 0.00 | 68 | 1015.5 |
| 20260506001633 | 20 | 107 | 11.3 | 22.5 | 0.00 | 0.00 | 0.00 | 68 | 1015.5 |
| 20260506001131 | 20 | 163 | 11.3 | 22.5 | 0.00 | 0.00 | 0.00 | 68 | 1015.5 |
| 20260506000628 | 20 | 145 | 9.7 | 17.7 | 0.00 | 0.00 | 0.00 | 68 | 1015.5 |
| 20260506000125 | 21 | 154 | 9.7 | 17.7 | 0.00 | 0.00 | 0.00 | 67 | 1015.5 |
| 20260505235623 | 21 | 163 | 9.7 | 20.9 | 0.00 | 0.00 | 0.00 | 67 | 1015.5 |
| 20260505235120 | 21 | 167 | 9.7 | 22.5 | 0.00 | 0.00 | 0.00 | 67 | 1015.5 |
| 20260505234617 | 21 | 154 | 11.3 | 25.7 | 0.00 | 0.00 | 0.00 | 66 | 1015.9 |
| 20260505234114 | 21 | 169 | 19.3 | 25.7 | 0.00 | 0.00 | 0.00 | 66 | 1015.5 |
| 20260505233611 | 21 | 206 | 14.5 | 24.1 | 0.00 | 0.00 | 0.00 | 65 | 1015.5 |
| 20260505233109 | 21 | 148 | 12.9 | 24.1 | 0.00 | 0.00 | 0.00 | 65 | 1015.5 |
| 20260505232606 | 21 | 164 | 19.3 | 24.1 | 0.00 | 0.00 | 0.00 | 64 | 1015.5 |
| 20260505232104 | 21 | 157 | 11.3 | 25.7 | 0.00 | 0.00 | 0.00 | 63 | 1015.5 |
| 20260505231600 | 21 | 161 | 16.1 | 25.7 | 0.00 | 0.00 | 0.00 | 62 | 1015.5 |
| 20260505231059 | 22 | 173 | 12.9 | 24.1 | 0.00 | 0.00 | 0.00 | 62 | 1015.9 |
| 20260505230556 | 22 | 182 | 8.0 | 27.4 | 0.00 | 0.00 | 0.00 | 61 | 1015.9 |
| 20260505230052 | 22 | 170 | 19.3 | 32.2 | 0.00 | 0.00 | 0.00 | 59 | 1015.9 |
| 20260505225549 | 22 | 180 | 14.5 | 32.2 | 0.00 | 0.00 | 0.00 | 58 | 1015.9 |
| 20260505225045 | 22 | 187 | 17.7 | 24.1 | 0.00 | 0.00 | 0.00 | 59 | 1015.5 |
| 20260505224542 | 22 | 147 | 16.1 | 24.1 | 0.00 | 0.00 | 0.00 | 58 | 1015.5 |
| 20260505224040 | 22 | 141 | 12.9 | 27.4 | 0.00 | 0.00 | 0.00 | 57 | 1015.5 |
| 20260505223537 | 23 | 179 | 11.3 | 27.4 | 0.00 | 0.00 | 0.00 | 55 | 1015.5 |
| 20260505223033 | 23 | 183 | 20.9 | 27.4 | 0.00 | 0.00 | 0.00 | 55 | 1015.9 |
| 20260505222529 | 23 | 133 | 12.9 | 29.0 | 0.00 | 0.00 | 0.00 | 56 | 1015.5 |
| 20260505222025 | 23 | 152 | 19.3 | 29.0 | 0.00 | 0.00 | 0.00 | 57 | 1015.5 |
| 20260505221523 | 23 | 177 | 19.3 | 29.0 | 0.00 | 0.00 | 0.00 | 58 | 1015.9 |
| 20260505221019 | 22 | 156 | 14.5 | 35.4 | 0.00 | 0.00 | 0.00 | 58 | 1015.9 |
| 20260505220517 | 23 | 152 | 17.7 | 35.4 | 0.00 | 0.00 | 0.00 | 59 | 1015.5 |
| 20260505220014 | 23 | 196 | 19.3 | 33.8 | 0.00 | 0.00 | 0.00 | 61 | 1015.9 |
| 20260505215512 | 22 | 166 | 24.1 | 32.2 | 0.00 | 0.00 | 0.00 | 60 | 1015.5 |
| 20260505215010 | 23 | 172 | 19.3 | 32.2 | 0.00 | 0.00 | 0.00 | 60 | 1015.9 |
| 20260505214508 | 23 | 174 | 16.1 | 32.2 | 0.00 | 0.00 | 0.00 | 60 | 1015.9 |
| 20260505214004 | 23 | 169 | 19.3 | 35.4 | 0.00 | 0.00 | 0.00 | 59 | 1015.5 |
| 20260505213502 | 23 | 154 | 14.5 | 35.4 | 0.00 | 0.00 | 0.00 | 59 | 1015.5 |
| 20260505212958 | 23 | 186 | 14.5 | 29.0 | 0.00 | 0.00 | 0.00 | 59 | 1015.9 |
| 20260505212455 | 23 | 160 | 17.7 | 29.0 | 0.00 | 0.00 | 0.00 | 59 | 1015.9 |
| 20260505211951 | 23 | 136 | 12.9 | 27.4 | 0.00 | 0.00 | 0.00 | 59 | 1015.9 |
| 20260505211449 | 23 | 125 | 16.1 | 29.0 | 0.00 | 0.00 | 0.00 | 60 | 1015.9 |
| 20260505210945 | 23 | 189 | 17.7 | 29.0 | 0.00 | 0.00 | 0.00 | 60 | 1015.9 |
| 20260505210442 | 23 | 171 | 20.9 | 33.8 | 0.00 | 0.00 | 0.00 | 60 | 1015.9 |
| 20260505205939 | 23 | 130 | 14.5 | 33.8 | 0.00 | 0.00 | 0.00 | 60 | 1015.9 |
| 20260505205438 | 23 | 196 | 16.1 | 32.2 | 0.00 | 0.00 | 0.00 | 60 | 1015.9 |
| 20260505204934 | 23 | 168 | 17.7 | 32.2 | 0.00 | 0.00 | 0.00 | 59 | 1016.2 |
| 20260505204432 | 23 | 184 | 20.9 | 32.2 | 0.00 | 0.00 | 0.00 | 60 | 1015.9 |
| 20260505203929 | 23 | 126 | 16.1 | 32.2 | 0.00 | 0.00 | 0.00 | 61 | 1015.9 |
| 20260505203425 | 23 | 170 | 22.5 | 37.0 | 0.00 | 0.00 | 0.00 | 60 | 1015.9 |
| 20260505202921 | 23 | 167 | 20.9 | 37.0 | 0.00 | 0.00 | 0.00 | 60 | 1016.2 |
| 20260505202418 | 23 | 192 | 16.1 | 32.2 | 0.00 | 0.00 | 0.00 | 60 | 1016.2 |
| 20260505201915 | 23 | 184 | 12.9 | 27.4 | 0.00 | 0.00 | 0.00 | 60 | 1016.2 |
| 20260505201412 | 23 | 120 | 12.9 | 29.0 | 0.00 | 0.00 | 0.00 | 61 | 1016.2 |
| 20260505200910 | 23 | 128 | 14.5 | 29.0 | 0.00 | 0.00 | 0.00 | 61 | 1016.2 |
| 20260505200407 | 23 | 185 | 17.7 | 29.0 | 0.00 | 0.00 | 0.00 | 61 | 1016.6 |
| 20260505195902 | 23 | 165 | 22.5 | 32.2 | 0.00 | 0.00 | 0.00 | 61 | 1016.6 |
| 20260505195400 | 23 | 174 | 17.7 | 32.2 | 0.00 | 0.00 | 0.00 | 62 | 1016.6 |
| 20260505194857 | 23 | 165 | 22.5 | 32.2 | 0.00 | 0.00 | 0.00 | 61 | 1016.6 |
| 20260505194354 | 23 | 174 | 14.5 | 33.8 | 0.00 | 0.00 | 0.00 | 60 | 1016.6 |
| 20260505193849 | 23 | 181 | 25.7 | 37.0 | 0.00 | 0.00 | 0.00 | 60 | 1016.6 |
| 20260505193347 | 23 | 118 | 16.1 | 37.0 | 0.00 | 0.00 | 0.00 | 60 | 1016.9 |
| 20260505192844 | 23 | 180 | 22.5 | 32.2 | 0.00 | 0.00 | 0.00 | 61 | 1016.9 |
| 20260505192343 | 23 | 170 | 20.9 | 35.4 | 0.00 | 0.00 | 0.00 | 61 | 1016.9 |
| 20260505191840 | 23 | 189 | 22.5 | 35.4 | 0.00 | 0.00 | 0.00 | 62 | 1016.9 |
| 20260505191338 | 23 | 190 | 16.1 | 32.2 | 0.00 | 0.00 | 0.00 | 61 | 1017.2 |
| 20260505190834 | 24 | 193 | 22.5 | 32.2 | 0.00 | 0.00 | 0.00 | 61 | 1016.9 |
| 20260505190330 | 23 | 176 | 14.5 | 33.8 | 0.00 | 0.00 | 0.00 | 61 | 1017.2 |
| 20260505185826 | 23 | 205 | 19.3 | 33.8 | 0.00 | 0.00 | 0.00 | 61 | 1017.2 |
| 20260505185322 | 24 | 184 | 17.7 | 33.8 | 0.00 | 0.00 | 0.00 | 61 | 1016.9 |
| 20260505184819 | 24 | 182 | 19.3 | 27.4 | 0.00 | 0.00 | 0.00 | 61 | 1017.2 |
| 20260505184316 | 24 | 168 | 16.1 | 29.0 | 0.00 | 0.00 | 0.00 | 61 | 1017.2 |
| 20260505183813 | 24 | 193 | 16.1 | 29.0 | 0.00 | 0.00 | 0.00 | 61 | 1017.2 |
| 20260505183310 | 24 | 146 | 16.1 | 27.4 | 0.00 | 0.00 | 0.00 | 60 | 1017.2 |
| 20260505182807 | 24 | 180 | 17.7 | 29.0 | 0.00 | 0.00 | 0.00 | 60 | 1017.2 |
| 20260505182306 | 23 | 173 | 17.7 | 27.4 | 0.00 | 0.00 | 0.00 | 60 | 1017.6 |
| 20260505181800 | 23 | 177 | 11.3 | 27.4 | 0.00 | 0.00 | 0.00 | 60 | 1017.2 |
| 20260505181257 | 23 | 146 | 17.7 | 27.4 | 0.00 | 0.00 | 0.00 | 61 | 1017.2 |
| 20260505180754 | 23 | 140 | 17.7 | 27.4 | 0.00 | 0.00 | 0.00 | 61 | 1017.2 |
| 20260505180250 | 23 | 174 | 19.3 | 29.0 | 0.00 | 0.00 | 0.00 | 61 | 1017.6 |
| 20260505175747 | 23 | 167 | 19.3 | 29.0 | 0.00 | 0.00 | 0.00 | 60 | 1017.2 |
| 20260505175243 | 24 | 151 | 20.9 | 32.2 | 0.00 | 0.00 | 0.00 | 60 | 1017.2 |
| 20260505174740 | 24 | 166 | 19.3 | 32.2 | 0.00 | 0.00 | 0.00 | 60 | 1017.2 |
| 20260505174237 | 23 | 142 | 12.9 | 27.4 | 0.00 | 0.00 | 0.00 | 60 | 1017.6 |
| 20260505173733 | 24 | 139 | 14.5 | 27.4 | 0.00 | 0.00 | 0.00 | 61 | 1017.2 |
| 20260505173230 | 23 | 167 | 19.3 | 29.0 | 0.00 | 0.00 | 0.00 | 61 | 1017.2 |
| 20260505172727 | 23 | 173 | 19.3 | 29.0 | 0.00 | 0.00 | 0.00 | 61 | 1017.2 |
| 20260505172224 | 23 | 148 | 20.9 | 27.4 | 0.00 | 0.00 | 0.00 | 61 | 1017.6 |
| 20260505171723 | 23 | 185 | 14.5 | 32.2 | 0.00 | 0.00 | 0.00 | 62 | 1017.2 |
| 20260505171221 | 23 | 172 | 17.7 | 29.0 | 0.00 | 0.00 | 0.00 | 62 | 1017.6 |
| 20260505170717 | 23 | 183 | 17.7 | 29.0 | 0.00 | 0.00 | 0.00 | 62 | 1017.6 |
| 20260505170214 | 23 | 155 | 16.1 | 27.4 | 0.00 | 0.00 | 0.00 | 61 | 1017.6 |
| 20260505165710 | 23 | 163 | 16.1 | 27.4 | 0.00 | 0.00 | 0.00 | 60 | 1017.6 |
| 20260505165206 | 23 | 163 | 19.3 | 25.7 | 0.00 | 0.00 | 0.00 | 61 | 1017.9 |
| 20260505164701 | 23 | 172 | 20.9 | 25.7 | 0.00 | 0.00 | 0.00 | 61 | 1017.6 |
| 20260505164159 | 23 | 150 | 11.3 | 25.7 | 0.00 | 0.00 | 0.00 | 61 | 1017.2 |
| 20260505163657 | 23 | 156 | 17.7 | 22.5 | 0.00 | 0.00 | 0.00 | 60 | 1017.2 |
| 20260505163155 | 24 | 190 | 12.9 | 24.1 | 0.00 | 0.00 | 0.00 | 62 | 1017.6 |
| 20260505162652 | 23 | 144 | 17.7 | 25.7 | 0.00 | 0.00 | 0.00 | 61 | 1017.9 |
| 20260505162149 | 23 | 170 | 14.5 | 25.7 | 0.00 | 0.00 | 0.00 | 62 | 1017.6 |
| 20260505161646 | 23 | 171 | 14.5 | 24.1 | 0.00 | 0.00 | 0.00 | 62 | 1017.9 |
| 20260505161143 | 23 | 147 | 14.5 | 24.1 | 0.00 | 0.00 | 0.00 | 63 | 1017.9 |
| 20260505160641 | 23 | 164 | 11.3 | 25.7 | 0.00 | 0.00 | 0.00 | 62 | 1017.9 |
| 20260505160138 | 23 | 161 | 12.9 | 25.7 | 0.00 | 0.00 | 0.00 | 62 | 1017.9 |
| 20260505153118 | 23 | 188 | 12.9 | 22.5 | 0.00 | 0.00 | 0.00 | 63 | 1017.9 |
| 20260505152614 | 23 | 181 | 14.5 | 25.7 | 0.00 | 0.00 | 0.00 | 63 | 1017.9 |
| 20260505152110 | 23 | 160 | 19.3 | 25.7 | 0.00 | 0.00 | 0.00 | 62 | 1017.9 |
| 20260505151605 | 23 | 179 | 12.9 | 24.1 | 0.00 | 0.00 | 0.00 | 64 | 1017.6 |
| 20260505151103 | 23 | 180 | 14.5 | 24.1 | 0.00 | 0.00 | 0.00 | 64 | 1017.9 |
| 20260505150559 | 23 | 190 | 16.1 | 24.1 | 0.00 | 0.00 | 0.00 | 64 | 1017.9 |
| 20260505140525 | 22 | 183 | 8.0 | 17.7 | 0.00 | 0.00 | 0.00 | 66 | 1017.6 |
| 20260505124938 | 21 | 59 | 3.2 | 4.8 | 0.00 | 0.00 | 0.00 | 73 | 1017.2 |
| 20260505124435 | 21 | 58 | 3.2 | 4.8 | 0.00 | 0.00 | 0.00 | 74 | 1017.2 |
| 20260505123931 | 20 | 70 | 1.6 | 4.8 | 0.00 | 0.00 | 0.00 | 75 | 1017.6 |
| 20260505123428 | 20 | 71 | 1.6 | 3.2 | 0.00 | 0.00 | 0.00 | 77 | 1017.6 |
| 20260505122923 | 20 | 79 | 1.6 | 3.2 | 0.00 | 0.00 | 0.00 | 79 | 1017.6 |
| 20260505122421 | 20 | 68 | 3.2 | 3.2 | 0.00 | 0.00 | 0.00 | 81 | 1017.6 |
| 20260505121918 | 20 | 111 | 1.6 | 3.2 | 0.00 | 0.00 | 0.00 | 83 | 1017.2 |
| 20260505121415 | 19 | 112 | 1.6 | 3.2 | 0.00 | 0.00 | 0.00 | 85 | 1017.6 |
| 20260505120910 | 19 | 112 | 1.6 | 1.6 | 0.00 | 0.00 | 0.00 | 87 | 1017.2 |
| 20260505120407 | 18 | 112 | 0.0 | 1.6 | 0.00 | 0.00 | 0.00 | 88 | 1017.2 |
| 20260505115906 | 18 | 112 | 1.6 | 3.2 | 0.00 | 0.00 | 0.00 | 88 | 1017.2 |
| 20260505115403 | 17 | 112 | 1.6 | 3.2 | 0.00 | 0.00 | 0.00 | 89 | 1017.2 |
| 20260505114901 | 17 | 169 | 1.6 | 3.2 | 0.00 | 0.00 | 0.00 | 90 | 1017.2 |
| 20260505114357 | 17 | 170 | 0.0 | 1.6 | 0.00 | 0.00 | 0.00 | 90 | 1016.9 |
| 20260505113853 | 16 | 170 | 0.0 | 1.6 | 0.00 | 0.00 | 0.00 | 90 | 1016.9 |
| 20260505113350 | 16 | 170 | 1.6 | 1.6 | 0.00 | 0.00 | 0.00 | 91 | 1016.9 |
| 20260505112846 | 16 | 170 | 0.0 | 1.6 | 0.00 | 0.00 | 0.00 | 91 | 1016.6 |
| 20260505112344 | 15 | 170 | 0.0 | 1.6 | 0.00 | 0.00 | 0.00 | 90 | 1016.9 |
| 20260505111839 | 14 | 171 | 0.0 | 0.0 | 0.00 | 0.00 | 0.00 | 90 | 1016.6 |
| 20260505111335 | 14 | 171 | 0.0 | 0.0 | 0.00 | 0.00 | 0.00 | 90 | 1016.6 |
| 20260505110831 | 14 | 171 | 0.0 | 0.0 | 0.00 | 0.00 | 0.00 | 90 | 1016.6 |
| 20260505110328 | 14 | 171 | 0.0 | 0.0 | 0.00 | 0.00 | 0.00 | 89 | 1016.9 |
| 20260505101803 | 14 | 171 | 0.0 | 1.6 | 0.00 | 0.00 | 0.00 | 88 | 1016.6 |
| 20260505101258 | 14 | 172 | 1.6 | 1.6 | 0.00 | 0.00 | 0.00 | 87 | 1016.6 |
| 20260505100755 | 14 | 171 | 0.0 | 1.6 | 0.00 | 0.00 | 0.00 | 87 | 1016.6 |
| 20260505100252 | 14 | 171 | 0.0 | 1.6 | 0.00 | 0.00 | 0.00 | 87 | 1016.2 |
| 20260505095747 | 14 | 171 | 1.6 | 1.6 | 0.00 | 0.00 | 0.00 | 87 | 1016.2 |
| 20260505095245 | 15 | 171 | 0.0 | 1.6 | 0.00 | 0.00 | 0.00 | 86 | 1016.2 |
| 20260505094740 | 15 | 171 | 0.0 | 0.0 | 0.00 | 0.00 | 0.00 | 86 | 1016.2 |
| 20260505094238 | 15 | 171 | 0.0 | 0.0 | 0.00 | 0.00 | 0.00 | 86 | 1016.2 |
| 20260505093733 | 15 | 171 | 0.0 | 0.0 | 0.00 | 0.00 | 0.00 | 85 | 1016.2 |
| 20260505093231 | 15 | 171 | 0.0 | 0.0 | 0.00 | 0.00 | 0.00 | 85 | 1016.2 |
| 20260505092728 | 15 | 171 | 0.0 | 1.6 | 0.00 | 0.00 | 0.00 | 84 | 1016.2 |
| 20260505092227 | 15 | 171 | 0.0 | 1.6 | 0.00 | 0.00 | 0.00 | 84 | 1016.2 |
| 20260505091723 | 15 | 172 | 0.0 | 1.6 | 0.00 | 0.00 | 0.00 | 84 | 1016.2 |
| 20260505091221 | 15 | 172 | 0.0 | 1.6 | 0.00 | 0.00 | 0.00 | 83 | 1015.9 |
| 20260505090719 | 15 | 172 | 0.0 | 1.6 | 0.00 | 0.00 | 0.00 | 83 | 1016.2 |
| 20260505090217 | 16 | 172 | 0.0 | 1.6 | 0.00 | 0.00 | 0.00 | 82 | 1016.2 |
| 20260505085714 | 16 | 171 | 0.0 | 1.6 | 0.00 | 0.00 | 0.00 | 82 | 1016.2 |
| 20260505085212 | 16 | 172 | 0.0 | 1.6 | 0.00 | 0.00 | 0.00 | 81 | 1015.9 |
| 20260505084709 | 16 | 172 | 0.0 | 1.6 | 0.00 | 0.00 | 0.00 | 81 | 1015.9 |
| 20260505084208 | 16 | 171 | 0.0 | 1.6 | 0.00 | 0.00 | 0.00 | 81 | 1015.9 |
| 20260505083705 | 16 | 172 | 0.0 | 1.6 | 0.00 | 0.00 | 0.00 | 81 | 1015.5 |
| 20260505083201 | 16 | 171 | 0.0 | 4.8 | 0.00 | 0.00 | 0.00 | 81 | 1015.5 |
| 20260505082657 | 16 | 171 | 0.0 | 4.8 | 0.00 | 0.00 | 0.00 | 80 | 1015.5 |
| 20260505082155 | 16 | 203 | 0.0 | 1.6 | 0.00 | 0.00 | 0.00 | 80 | 1015.5 |
| 20260505081650 | 17 | 203 | 0.0 | 3.2 | 0.00 | 0.00 | 0.00 | 80 | 1015.5 |
| 20260505081148 | 17 | 204 | 1.6 | 3.2 | 0.00 | 0.00 | 0.00 | 80 | 1015.5 |
| 20260505080645 | 17 | 193 | 0.0 | 3.2 | 0.00 | 0.00 | 0.00 | 80 | 1015.5 |
| 20260505080141 | 17 | 172 | 0.0 | 4.8 | 0.00 | 0.00 | 0.00 | 79 | 1015.9 |
| 20260505075637 | 17 | 164 | 0.0 | 4.8 | 0.00 | 0.00 | 0.00 | 79 | 1015.5 |
| 20260505075134 | 17 | 149 | 1.6 | 3.2 | 0.00 | 0.00 | 0.00 | 78 | 1015.5 |
| 20260505074631 | 17 | 183 | 0.0 | 8.0 | 0.00 | 0.00 | 0.00 | 78 | 1015.5 |
| 20260505074128 | 17 | 201 | 1.6 | 8.0 | 0.00 | 0.00 | 0.00 | 77 | 1015.5 |
| 20260505073626 | 17 | 190 | 0.0 | 4.8 | 0.00 | 0.00 | 0.00 | 76 | 1015.5 |
| 20260505073124 | 17 | 164 | 1.6 | 4.8 | 0.00 | 0.00 | 0.00 | 75 | 1015.5 |
| 20260505072619 | 17 | 197 | 1.6 | 4.8 | 0.00 | 0.00 | 0.00 | 75 | 1015.5 |
| 20260505072116 | 17 | 187 | 3.2 | 11.3 | 0.00 | 0.00 | 0.00 | 74 | 1015.5 |
| 20260505071611 | 17 | 196 | 3.2 | 12.9 | 0.00 | 0.00 | 0.00 | 74 | 1015.5 |
| 20260505071109 | 17 | 206 | 8.0 | 12.9 | 0.00 | 0.00 | 0.00 | 74 | 1015.5 |
| 20260505070606 | 18 | 243 | 4.8 | 14.5 | 0.00 | 0.00 | 0.00 | 74 | 1015.5 |
| 20260505065558 | 18 | 173 | 9.7 | 17.7 | 0.00 | 0.00 | 0.00 | 73 | 1015.5 |
| 20260505065055 | 18 | 176 | 8.0 | 17.7 | 0.00 | 0.00 | 0.00 | 73 | 1015.5 |
| 20260505064552 | 18 | 193 | 11.3 | 17.7 | 0.00 | 0.00 | 0.00 | 73 | 1015.5 |
| 20260505064051 | 18 | 180 | 8.0 | 17.7 | 0.00 | 0.00 | 0.00 | 73 | 1015.9 |
| 20260505063547 | 18 | 179 | 8.0 | 14.5 | 0.00 | 0.00 | 0.00 | 72 | 1015.5 |
| 20260505063043 | 18 | 178 | 11.3 | 16.1 | 0.00 | 0.00 | 0.00 | 72 | 1015.9 |
| 20260505062540 | 18 | 181 | 9.7 | 22.5 | 0.00 | 0.00 | 0.00 | 72 | 1015.9 |
| 20260505062037 | 18 | 181 | 12.9 | 22.5 | 0.00 | 0.00 | 0.00 | 72 | 1015.9 |
| 20260505061534 | 18 | 168 | 11.3 | 17.7 | 0.00 | 0.00 | 0.00 | 72 | 1016.2 |
| 20260505061032 | 18 | 160 | 11.3 | 17.7 | 0.00 | 0.00 | 0.00 | 72 | 1016.2 |
| 20260505060529 | 18 | 164 | 12.9 | 17.7 | 0.00 | 0.00 | 0.00 | 71 | 1016.2 |
| 20260505060026 | 18 | 189 | 11.3 | 22.5 | 0.00 | 0.00 | 0.00 | 71 | 1016.6 |
| 20260505055521 | 19 | 177 | 14.5 | 22.5 | 0.00 | 0.00 | 0.00 | 71 | 1016.2 |
| 20260505055018 | 19 | 188 | 16.1 | 20.9 | 0.00 | 0.00 | 0.00 | 70 | 1016.6 |
| 20260505054516 | 19 | 161 | 11.3 | 20.9 | 0.00 | 0.00 | 0.00 | 70 | 1016.6 |
| 20260505054014 | 19 | 180 | 12.9 | 22.5 | 0.00 | 0.00 | 0.00 | 70 | 1016.6 |
| 20260505053511 | 19 | 186 | 12.9 | 22.5 | 0.00 | 0.00 | 0.00 | 70 | 1016.6 |
| 20260505053007 | 19 | 176 | 17.7 | 22.5 | 0.00 | 0.00 | 0.00 | 70 | 1016.9 |
| 20260505052505 | 19 | 175 | 14.5 | 22.5 | 0.00 | 0.00 | 0.00 | 70 | 1016.9 |
| 20260505052002 | 19 | 177 | 14.5 | 20.9 | 0.00 | 0.00 | 0.00 | 69 | 1016.9 |
| 20260505051458 | 20 | 171 | 14.5 | 25.7 | 0.00 | 0.00 | 0.00 | 69 | 1016.9 |
| 20260505050957 | 20 | 184 | 14.5 | 25.7 | 0.00 | 0.00 | 0.00 | 68 | 1016.9 |
| 20260505050454 | 20 | 174 | 17.7 | 27.4 | 0.00 | 0.00 | 0.00 | 68 | 1017.2 |
| 20260505041422 | 20 | 162 | 16.1 | 24.1 | 0.00 | 0.00 | 0.00 | 68 | 1017.2 |
| 20260505040919 | 20 | 182 | 11.3 | 24.1 | 0.00 | 0.00 | 0.00 | 68 | 1017.2 |
| 20260505040417 | 20 | 176 | 16.1 | 29.0 | 0.00 | 0.00 | 0.00 | 69 | 1017.2 |
| 20260505035913 | 20 | 176 | 12.9 | 29.0 | 0.00 | 0.00 | 0.00 | 68 | 1017.2 |
| 20260505035409 | 20 | 186 | 17.7 | 29.0 | 0.00 | 0.00 | 0.00 | 69 | 1017.2 |
| 20260505034907 | 20 | 171 | 16.1 | 25.7 | 0.00 | 0.00 | 0.00 | 69 | 1017.2 |
| 20260505034403 | 20 | 167 | 16.1 | 27.4 | 0.00 | 0.00 | 0.00 | 70 | 1017.2 |
| 20260505033900 | 20 | 171 | 16.1 | 27.4 | 0.00 | 0.00 | 0.00 | 70 | 1017.2 |
| 20260505033357 | 20 | 178 | 16.1 | 27.4 | 0.00 | 0.00 | 0.00 | 70 | 1017.2 |
| 20260505032855 | 20 | 160 | 16.1 | 27.4 | 0.00 | 0.00 | 0.00 | 70 | 1017.2 |
| 20260505032352 | 20 | 174 | 17.7 | 24.1 | 0.00 | 0.00 | 0.00 | 70 | 1017.2 |
| 20260505031848 | 20 | 160 | 14.5 | 24.1 | 0.00 | 0.00 | 0.00 | 70 | 1017.2 |
| 20260505031345 | 20 | 175 | 12.9 | 22.5 | 0.00 | 0.00 | 0.00 | 70 | 1017.2 |
| 20260505030843 | 20 | 167 | 14.5 | 24.1 | 0.00 | 0.00 | 0.00 | 69 | 1017.2 |
| 20260505030338 | 20 | 174 | 11.3 | 24.1 | 0.00 | 0.00 | 0.00 | 69 | 1017.2 |
| 20260505025834 | 20 | 174 | 14.5 | 22.5 | 0.00 | 0.00 | 0.00 | 69 | 1017.2 |
| 20260505025332 | 20 | 177 | 12.9 | 22.5 | 0.00 | 0.00 | 0.00 | 68 | 1017.2 |
| 20260505024830 | 20 | 178 | 12.9 | 22.5 | 0.00 | 0.00 | 0.00 | 68 | 1017.2 |
| 20260505024327 | 20 | 177 | 11.3 | 20.9 | 0.00 | 0.00 | 0.00 | 68 | 1017.2 |
| 20260505023824 | 20 | 183 | 11.3 | 20.9 | 0.00 | 0.00 | 0.00 | 68 | 1016.9 |
| 20260505023321 | 20 | 161 | 8.0 | 17.7 | 0.00 | 0.00 | 0.00 | 68 | 1016.9 |
| 20260505022819 | 20 | 183 | 14.5 | 20.9 | 0.00 | 0.00 | 0.00 | 67 | 1017.2 |
| 20260505022315 | 20 | 191 | 11.3 | 20.9 | 0.00 | 0.00 | 0.00 | 67 | 1016.9 |
| 20260505021813 | 20 | 164 | 11.3 | 20.9 | 0.00 | 0.00 | 0.00 | 67 | 1016.9 |
| 20260505021309 | 20 | 151 | 9.7 | 16.1 | 0.00 | 0.00 | 0.00 | 67 | 1016.9 |
| 20260505020805 | 20 | 180 | 11.3 | 17.7 | 0.00 | 0.00 | 0.00 | 66 | 1016.9 |
| 20260505020301 | 20 | 164 | 11.3 | 17.7 | 0.00 | 0.00 | 0.00 | 66 | 1016.6 |
| 20260505015758 | 20 | 169 | 14.5 | 17.7 | 0.00 | 0.00 | 0.00 | 66 | 1016.9 |
| 20260505015255 | 20 | 161 | 11.3 | 17.7 | 0.00 | 0.00 | 0.00 | 67 | 1016.9 |
| 20260505014752 | 20 | 159 | 8.0 | 17.7 | 0.00 | 0.00 | 0.00 | 68 | 1016.9 |
| 20260505014249 | 19 | 158 | 11.3 | 14.5 | 0.00 | 0.00 | 0.00 | 68 | 1016.9 |
| 20260505013745 | 19 | 178 | 8.0 | 14.5 | 0.00 | 0.00 | 0.00 | 68 | 1016.9 |
| 20260505013243 | 19 | 169 | 8.0 | 14.5 | 0.00 | 0.00 | 0.00 | 68 | 1016.6 |
| 20260505012741 | 19 | 155 | 8.0 | 12.9 | 0.00 | 0.00 | 0.00 | 68 | 1016.9 |
| 20260505012238 | 19 | 178 | 8.0 | 14.5 | 0.00 | 0.00 | 0.00 | 67 | 1016.9 |
| 20260505011733 | 19 | 148 | 9.7 | 14.5 | 0.00 | 0.00 | 0.00 | 67 | 1016.9 |
| 20260505011231 | 20 | 166 | 6.4 | 12.9 | 0.00 | 0.00 | 0.00 | 66 | 1016.6 |
| 20260505010726 | 20 | 164 | 9.7 | 14.5 | 0.00 | 0.00 | 0.00 | 65 | 1016.6 |
| 20260505010223 | 20 | 154 | 9.7 | 17.7 | 0.00 | 0.00 | 0.00 | 65 | 1016.9 |
| 20260505005719 | 20 | 178 | 11.3 | 17.7 | 0.00 | 0.00 | 0.00 | 65 | 1016.6 |
| 20260505005217 | 20 | 162 | 8.0 | 20.9 | 0.00 | 0.00 | 0.00 | 65 | 1016.6 |
| 20260505004714 | 20 | 173 | 9.7 | 20.9 | 0.00 | 0.00 | 0.00 | 64 | 1016.9 |